Regional Weather Roundup
Issued by NWS

Home | Current Version | Previous Version | Graphics & Text | Print | Product List | Glossary On
Versions: 1 2 3 4 5 6 7 8 9 10 11 12 13 14 15 16 17 18 19 20 21 22 23 24 25
000
ASUS45 KSLC 180910
RWRUT

UTAH REGIONAL WEATHER ROUNDUP
NATIONAL WEATHER SERVICE SALT LAKE CITY UT
200 AM MST SUN FEB 18 2018

UTZ001>011-023>025-181000-

NORTHERN UTAH

CITY           SKY/WX    TMP DP  RH WIND       PRES   REMARKS
BRIGHAM CITY   CLOUDY    49  19  30 S12       29.66F
HILL AFB       CLOUDY    49  17  27 S22G29    29.67F
LOGAN          CLOUDY    55  20  25 SW15      29.61F
OGDEN          CLOUDY    51  17  26 S22       29.66F
SALT LAKE CITY CLOUDY    56  16  20 S30G39    29.68F
TOOELE VALLEY  CLOUDY    54  18  24 S18G25    29.69F
WENDOVER       MOCLDY    45  13  27 W12       29.67F
HEBER CITY       N/A     45  12  26 SW21G29   29.75S
WEST JORDAN    CLOUDY    49  21  32 SE28G36   29.72F

$$

UTZ011>015-024>027-181000-

CENTRAL/NORTHEAST UTAH

CITY           SKY/WX    TMP DP  RH WIND       PRES   REMARKS
PROVO AIRPORT  CLOUDY    51  15  23 S23       29.79F
MOAB/CANYONLAN CLEAR     33  23  66 CALM      29.88F
DELTA          CLOUDY    45  14  29 S26G36    29.82F
PRICE          MOCLDY    27  17  66 NE5       29.87F WCI  22
RICHFIELD      CLEAR     46  10  23 SW16G22   29.86F
ROOSEVELT      MOCLDY    27  12  54 W3        29.82F
VERNAL         MOCLDY    25  12  58 NW6       29.80F WCI  18

$$

UTZ013>016-019>022-027-181000-

SOUTHERN UTAH

CITY           SKY/WX    TMP DP  RH WIND       PRES   REMARKS
BRYCE CANYON   CLEAR     19  16  88 VRB6      30.01F WCI  11
CEDAR CITY     CLEAR     34  18  52 S10       29.95F WCI  26
MILFORD        PTCLDY    37  15  40 SW15      29.90F WCI  28
ST GEORGE      CLOUDY    39  32  76 SW3       29.99S
HANKSVILLE     CLEAR     34  19  55 W5        29.90F WCI  30
KANAB          CLEAR     25  23  93 NE6       30.03F WCI  18
BLANDING         N/A     31  16  54 NE7       30.08S WCI  24

$$

REGIONAL REPORTS     COLORADO/ARIZONA

CITY           SKY/WX    TMP DP  RH WIND       PRES   REMARKS
CRAIG, CO      PTCLDY    39  16  39 W13       29.78F WCI  31
GRAND JUNCTION CLEAR     32  22  66 E7        29.91S WCI  26
RIFLE, CO      CLEAR     22  17  81 S5        29.91F WCI  16
MONTROSE, CO   CLEAR     31  16  54 SE8       29.95F WCI  23
CORTEZ, CO     CLEAR     19  13  77 NE3       30.03F
COLORADO CITY    N/A     28  25  86 S5        30.03F WCI  23
PAGE, AZ       CLEAR     37  23  56 SW3       29.97F
GRAND CANYON   CLEAR     22  19  89 NE3       30.06F
KINGMAN, AZ    CLEAR     39  26  59 S7        30.00F WCI  34
FLAGSTAFF, AZ  PTCLDY    26  24  92 W3        30.08F

$$

REGIONAL REPORTS    NEVADA/IDAHO/WYOMING

CITY           SKY/WX    TMP DP  RH WIND       PRES   REMARKS
LAS VEGAS, NV  PTCLDY    50  22  33 W6        29.94R
ELY, NY        CLEAR     35  12  38 S15       29.84F WCI  25
ELKO, NV       MOCLDY    45  24  43 SW10      29.73F
POCATELLO, ID  LGT RAIN  40  36  86 SW16      29.60F WCI  31
BURLEY, ID     LGT RAIN  42  36  79 W15G26    29.58F
FORT BRIDGER,    N/A     43  13  30 W29G37    29.64F
EVANSTON, WY   CLOUDY    41  15  35 SW29G36   29.63F
ROCK SPRINGS,  MOCLDY    43   8  23 SW24G35   29.61F

$$




USA.gov is the U.S. government's official web portal to all federal, state and local government web resources and services.